This demonstration page uses our WeatherBlox Daily Observations layout. Learn more.

Hourly Observations for June 6, 2019

Temp ( °F °C ) Dew Point ( °F °C ) Humidity (%) Winds ( mph kmh ) Pressure ( in mb ) Visibility ( mi km ) Precip ( " mm )
12:15 am 00:15 Clear 63 17.3 59 15 86 86 ENE 7 11 29.88 1012 10 16.09344 0 0
12:35 am 00:35 Clear 62 16.9 58 14.6 86 86 NE 6 9 29.88 1012 10 16.09344 0 0
12:55 am 00:55 Clear 62 16.4 58 14.3 87 87 NE 7 11 29.88 1012 10 16.09344 0 0
1:15 am 01:15 Clear 62 16.8 58 14.2 85 85 NE 3 6 29.88 1012 10 16.09344 0 0
1:35 am 01:35 Clear 62 16.7 57 14 84 84 NNE 6 9 29.85 1011 7 11.265408 0 0
1:55 am 01:55 Partly Cloudy 60 15.5 57 13.9 90 90 Calm 29.88 1012 10 16.09344 0 0
2:15 am 02:15 Partly Cloudy 60 15.5 57 13.9 90 90 Calm 29.88 1012 10 16.09344 0 0
2:35 am 02:35 Partly Cloudy 58 14.5 56 13.6 94 94 NW 5 7 29.88 1012 10 16.09344 0 0
2:55 am 02:55 Clear 58 14.6 56 13.5 93 93 Calm 29.88 1012 10 16.09344 0 0
3:15 am 03:15 Clear 58 14.7 56 13.6 93 93 WNW 5 7 29.88 1012 10 16.09344 0 0
3:35 am 03:35 Clear 58 14.5 56 13.6 94 94 NW 3 6 29.88 1012 10 16.09344 0 0
3:55 am 03:55 Partly Cloudy 58 14.2 56 13.5 96 96 NW 5 7 29.88 1012 10 16.09344 0 0
4:15 am 04:15 Partly Cloudy 58 14.4 56 13.5 94 94 WNW 3 6 29.88 1012 10 16.09344 0 0
4:35 am 04:35 Clear 57 14 56 13.1 94 94 NW 3 6 29.88 1012 10 16.09344 0 0
4:55 am 04:55 Clear 56 13.5 55 13 97 97 NNW 6 9 29.88 1012 10 16.09344 0 0
5:15 am 05:15 Partly Cloudy 57 14 55 12.8 93 93 NNW 3 6 29.88 1012 10 16.09344 0 0
5:35 am 05:35 Mostly Cloudy 56 13.6 56 13.1 97 97 NW 5 7 29.88 1012 10 16.09344 0 0
5:55 am 05:55 Partly Cloudy 57 13.7 56 13.1 96 96 NW 6 9 29.88 1012 10 16.09344 0 0
6:15 am 06:15 Partly Cloudy 56 13.5 55 13 97 97 NW 5 7 29.88 1012 10 16.09344 0 0
6:35 am 06:35 Partly Cloudy 56 13.5 55 13 97 97 W 6 9 29.88 1012 10 16.09344 0 0
6:55 am 06:55 Sunny 57 13.7 56 13.2 97 97 WNW 5 7 29.91 1013 10 16.09344 0 0
7:15 am 07:15 Sunny 58 14.2 56 13.6 96 96 WNW 5 7 29.91 1013 10 16.09344 0 0
7:35 am 07:35 Sunny 59 14.8 57 14 95 95 NW 5 7 29.91 1013 10 16.09344 0 0
7:55 am 07:55 Sunny 60 15.6 58 14.7 94 94 WNW 5 7 29.91 1013 10 16.09344 0 0
8:15 am 08:15 Sunny 62 16.5 58 14.7 89 89 WNW 3 6 29.88 1012 10 16.09344 0 0
8:35 am 08:35 Sunny 64 17.6 60 15.5 88 88 NNW 3 6 29.88 1012 10 16.09344 0 0
8:55 am 08:55 Sunny 66 19 59 15.2 79 79 W 3 6 29.88 1012 10 16.09344 0 0
9:15 am 09:15 Sunny 69 20.4 61 15.9 76 76 NNE 5 7 29.85 1011 10 16.09344 0 0
9:35 am 09:35 Sunny 70 21 60 15.8 72 72 NE 5 7 29.88 1012 10 16.09344 0 0
9:55 am 09:55 Sunny 71 21.5 61 16.3 72 72 NNE 5 7 29.85 1011 10 16.09344 0 0
10:15 am 10:15 Sunny 72 22.3 63 17 72 72 NNE 6 9 29.85 1011 10 16.09344 0 0
10:35 am 10:35 Sunny 73 23 63 17.2 70 70 ENE 7 11 29.83 1010 10 16.09344 0 0
10:55 am 10:55 Sunny 74 23.6 64 17.7 70 70 N 5 7 29.83 1010 10 16.09344 0 0
11:15 am 11:15 Sunny 76 24.3 64 18 68 68 NE 7 11 29.83 1010 10 16.09344 0 0
11:35 am 11:35 Sunny 77 25.1 66 18.8 68 68 NNE 7 11 29.83 1010 10 16.09344 0 0
11:55 am 11:55 Sunny 78 25.7 66 19.1 67 67 E 9 15 29.83 1010 10 16.09344 0 0
12:15 pm 12:15 Partly Cloudy 78 25.7 66 19 67 67 ENE 9 15 29.83 1010 10 16.09344 0 0
12:35 pm 12:35 Partly Cloudy 79 26 67 19.2 66 66 NE 8 13 29.83 1010 10 16.09344 0 0
12:55 pm 12:55 Partly Cloudy 79 26.3 67 19.4 66 66 E 8 13 29.8 1009 10 16.09344 0 0
1:15 pm 13:15 Mostly Cloudy 79 26.3 65 18.4 62 62 NE 9 15 29.8 1009 10 16.09344 0 0
1:35 pm 13:35 Mostly Cloudy 77 25.1 62 16.8 60 60 E 9 15 29.8 1009 10 16.09344 0 0
1:55 pm 13:55 Partly Cloudy 79 26.3 64 18 60 60 E 9 15 29.77 1008 10 16.09344 0 0
2:15 pm 14:15 Partly Cloudy 81 27 65 18.4 59 59 ENE 7 11 29.77 1008 10 16.09344 0 0
2:35 pm 14:35 Partly Cloudy 81 27.2 66 18.8 60 60 ESE 6 9 29.77 1008 10 16.09344 0 0
2:55 pm 14:55 Partly Cloudy 79 25.9 65 18.3 63 63 E 3 6 29.8 1009 10 16.09344 0 0
3:15 pm 15:15 Sunny 81 27.4 65 18.2 57 57 ESE 6 9 29.77 1008 7 11.265408 0 0
3:35 pm 15:35 Partly Cloudy 82 27.8 67 19.2 60 60 ESE 7 11 29.77 1008 10 16.09344 0 0
3:55 pm 15:55 Mostly Cloudy 79 26.2 67 19.2 65 65 ENE 7 11 29.77 1008 10 16.09344 0 0
4:15 pm 16:15 Partly Cloudy 80 26.8 66 18.9 62 62 ENE 13 20 29.77 1008 10 16.09344 0 0
4:35 pm 16:35 Sunny 80 26.7 66 18.8 62 62 E 14 22 29.77 1008 10 16.09344 0 0
4:55 pm 16:55 Partly Cloudy 80 26.5 64 17.5 58 58 E 13 20 29.77 1008 10 16.09344 0 0
5:15 pm 17:15 Mostly Cloudy 80 26.5 66 18.7 62 62 E 7 11 29.77 1008 10 16.09344 0 0
5:35 pm 17:35 Mostly Cloudy 80 26.7 64 18 59 59 ENE 7 11 29.77 1008 10 16.09344 0 0
5:55 pm 17:55 Partly Cloudy 80 26.9 62 16.7 54 54 ENE 7 11 29.77 1008 10 16.09344 0 0
6:15 pm 18:15 Sunny 79 26.2 64 17.6 59 59 E 8 13 29.77 1008 10 16.09344 0 0
6:35 pm 18:35 Sunny 80 26.7 62 16.8 55 55 ESE 6 9 29.77 1008 10 16.09344 0 0
6:55 pm 18:55 Sunny 79 26.2 65 18.1 61 61 E 6 9 29.77 1008 10 16.09344 0 0
7:15 pm 19:15 Sunny 79 25.9 62 16.9 58 58 E 7 11 29.8 1009 10 16.09344 0 0
7:35 pm 19:35 Sunny 78 25.5 62 16.8 59 59 E 6 9 29.8 1009 7 11.265408 0 0
7:55 pm 19:55 Sunny 77 24.8 62 16.8 61 61 ESE 10 17 29.8 1009 10 16.09344 0 0
8:15 pm 20:15 Sunny 76 24.5 62 16.4 61 61 E 8 13 29.8 1009 7 11.265408 0 0
8:35 pm 20:35 Sunny 74 23.5 63 17 67 67 E 7 11 29.8 1009 10 16.09344 0 0
8:55 pm 20:55 Sunny 73 22.8 63 17.3 71 71 E 7 11 29.8 1009 10 16.09344 0 0
9:15 pm 21:15 Clear 73 22.5 64 17.6 74 74 E 7 11 29.8 1009 10 16.09344 0 0
9:35 pm 21:35 Clear 72 22.1 63 17.3 74 74 ESE 8 13 29.83 1010 10 16.09344 0 0
9:55 pm 21:55 Clear 71 21.7 62 16.8 74 74 ESE 8 13 29.83 1010 10 16.09344 0 0
10:15 pm 22:15 Clear 69 20.8 62 16.5 77 77 SE 8 13 29.83 1010 10 16.09344 0 0
10:35 pm 22:35 Clear 69 20.5 62 16.5 78 78 SE 5 7 29.83 1010 10 16.09344 0 0
10:55 pm 22:55 Clear 68 20.2 62 16.4 79 79 SE 5 7 29.83 1010 10 16.09344 0 0
11:15 pm 23:15 Clear 69 20.4 61 16.2 77 77 SE 5 7 29.83 1010 10 16.09344 0 0
11:35 pm 23:35 Clear 68 20.1 61 16.1 78 78 SE 5 7 29.83 1010 10 16.09344 0 0
11:55 pm 23:55 Clear 66 19.1 61 16.1 83 83 SSE 5 7 29.83 1010 10 16.09344 0 0

Powered by AerisWeather